Location: Bednik
(45.3500°N, 16.3833°E)
Time: 06:27:25
(UTC+00:00)

USA 234 - Pass Details

Date: 08 August 2020
Orbit: 1101 x 1107 km, 123.0° (Epoch: 22 September)

Event Time Altitude Azimuth Distance (km) Brightness Sun altitude
Exits shadow 22:06:04 26° 236° (WSW) 2,001 4.4 -27.6°
Drops below altitude 10° 22:11:15 10° 290° (WNW) 2,962 5.9 -27.9°
Sets 22:14:14 0° 302° (WNW) 3,924 6.8 -28.0°
